Seattle, WA
on Tuesday, November 27, 2012

Tuesday
Previous Day Next Day
Daily Summary
 ActualAverageRecord
Temperature
Mean Temperature °F / °C 43°F / 6°C  
Max Temperature 50°F / 10°C 48°F / 9°C 58°F / 14°C (2013)
Min Temperature 35°F / 2°C 38°F / 3°C 19°F / -7°C (1985)
Degree Days
Heating Degree Days 22 22  
Month to date heating degree days 486 519  
Since 1 July heating degree days 979 1116  
Cooling Degree Days 0 0  
Month to date cooling degree days 0 0  
Year to date cooling degree days 177 189  
Moisture
Dew Point 35°F / 2°C   
Average Humidity 73    
Maximum Humidity 89    
Minimum Humidity 56    
Precipitation
Precipitation 0.00 in / 0.00 cm 0.22 in / 5.59 cm 1.30 in / 3.30 cm (1996)
Month to date precipitation 6.71 5.91  
Year to date precipitation 39.84 31.48  
Snow
Snow 0.00 in / 0.00 cm in / cm 7.60 in / 19.30 cm (1985)
Month to date snowfall 0.0  
Since 1 July snowfall 0.0  
Snow Depth 0.00 in / 0.00 cm   
Wind
Wind Speed 3 mph / 5 km/h   
Max Wind Speed 12 mph / 19 km/h   
Max Gust Speed 13 mph / 21 km/h   
Visibility 10 miles / 16 kilometers   
Events     

Key: T is trace of precipitation, MM is missing value
Source: NWS Daily Summary
Time(PST)TemperatureDew PointHumidity Pressure Visibility Wind DirectionWind SpeedGust SpeedPrecipitationEvents Conditions
12:53 AM 37.9°F / 3.3°C 30.0°F / -1.1°C 73% 30.10 in / 1019.2 hPa 10.0 miles / 16.1 kilometers Calm Calm - N/A   Mostly Cloudy
1:53 AM 37.0°F / 2.8°C 32.0°F / 0.0°C 82% 30.10 in / 1019.1 hPa 10.0 miles / 16.1 kilometers Calm Calm - N/A   Overcast
2:53 AM 36.0°F / 2.2°C 32.0°F / 0.0°C 86% 30.11 in / 1019.4 hPa 10.0 miles / 16.1 kilometers SE 8.1 mph / 13.0 km/h - N/A   Scattered Clouds
3:53 AM 37.0°F / 2.8°C 33.1°F / 0.6°C 86% 30.09 in / 1019.0 hPa 10.0 miles / 16.1 kilometers SE 5.8 mph / 9.3 km/h - N/A   Mostly Cloudy
4:53 AM 37.0°F / 2.8°C 33.1°F / 0.6°C 86% 30.09 in / 1019.0 hPa 10.0 miles / 16.1 kilometers SE 4.6 mph / 7.4 km/h - N/A   Mostly Cloudy
5:53 AM 37.0°F / 2.8°C 32.0°F / 0.0°C 82% 30.09 in / 1018.9 hPa 10.0 miles / 16.1 kilometers Calm Calm - N/A   Mostly Cloudy
6:53 AM 37.0°F / 2.8°C 33.1°F / 0.6°C 86% 30.09 in / 1018.8 hPa 10.0 miles / 16.1 kilometers Calm Calm - N/A   Mostly Cloudy
7:53 AM 36.0°F / 2.2°C 32.0°F / 0.0°C 86% 30.09 in / 1018.8 hPa 10.0 miles / 16.1 kilometers Calm Calm - N/A   Mostly Cloudy
8:53 AM 37.9°F / 3.3°C 33.1°F / 0.6°C 83% 30.09 in / 1018.9 hPa 10.0 miles / 16.1 kilometers North 4.6 mph / 7.4 km/h - N/A   Mostly Cloudy
9:53 AM 42.1°F / 5.6°C 36.0°F / 2.2°C 79% 30.09 in / 1018.9 hPa 10.0 miles / 16.1 kilometers NNE 4.6 mph / 7.4 km/h - N/A   Mostly Cloudy
10:53 AM 45.0°F / 7.2°C 35.1°F / 1.7°C 68% 30.08 in / 1018.4 hPa 10.0 miles / 16.1 kilometers NNE 3.5 mph / 5.6 km/h - N/A   Mostly Cloudy
11:53 AM 48.0°F / 8.9°C 34.0°F / 1.1°C 58% 30.05 in / 1017.6 hPa 10.0 miles / 16.1 kilometers Calm Calm - N/A   Mostly Cloudy
12:53 PM 48.9°F / 9.4°C 37.9°F / 3.3°C 66% 30.04 in / 1017.2 hPa 10.0 miles / 16.1 kilometers Calm Calm - N/A   Mostly Cloudy
1:53 PM 48.9°F / 9.4°C 39.0°F / 3.9°C 69% 30.02 in / 1016.5 hPa 10.0 miles / 16.1 kilometers West 3.5 mph / 5.6 km/h - N/A   Mostly Cloudy
2:53 PM 46.9°F / 8.3°C 39.0°F / 3.9°C 74% 30.01 in / 1016.1 hPa 10.0 miles / 16.1 kilometers WNW 3.5 mph / 5.6 km/h - N/A   Mostly Cloudy
3:53 PM 45.0°F / 7.2°C 37.0°F / 2.8°C 74% 30.01 in / 1016.0 hPa 10.0 miles / 16.1 kilometers WNW 3.5 mph / 5.6 km/h - N/A   Mostly Cloudy
4:53 PM 44.1°F / 6.7°C 37.0°F / 2.8°C 76% 30.00 in / 1015.8 hPa 10.0 miles / 16.1 kilometers Calm Calm - N/A   Mostly Cloudy
5:53 PM 43.0°F / 6.1°C 36.0°F / 2.2°C 76% 29.99 in / 1015.5 hPa 10.0 miles / 16.1 kilometers North 5.8 mph / 9.3 km/h - N/A   Overcast
6:53 PM 43.0°F / 6.1°C 36.0°F / 2.2°C 76% 29.98 in / 1015.2 hPa 10.0 miles / 16.1 kilometers North 5.8 mph / 9.3 km/h - N/A   Mostly Cloudy
7:53 PM 42.1°F / 5.6°C 36.0°F / 2.2°C 79% 29.96 in / 1014.6 hPa 10.0 miles / 16.1 kilometers North 5.8 mph / 9.3 km/h - N/A   Mostly Cloudy
8:53 PM 43.0°F / 6.1°C 36.0°F / 2.2°C 76% 29.94 in / 1013.7 hPa 10.0 miles / 16.1 kilometers NE 5.8 mph / 9.3 km/h - N/A   Mostly Cloudy
9:53 PM 41.0°F / 5.0°C 35.1°F / 1.7°C 79% 29.93 in / 1013.5 hPa 10.0 miles / 16.1 kilometers North 4.6 mph / 7.4 km/h - N/A   Mostly Cloudy
10:53 PM 42.1°F / 5.6°C 35.1°F / 1.7°C 76% 29.92 in / 1013.0 hPa 10.0 miles / 16.1 kilometers NNE 6.9 mph / 11.1 km/h - N/A   Mostly Cloudy
11:53 PM 41.0°F / 5.0°C 36.0°F / 2.2°C 82% 29.91 in / 1012.7 hPa 10.0 miles / 16.1 kilometers North 4.6 mph / 7.4 km/h - N/A   Mostly Cloudy
Moon Phase
Nov. 27 Nov. 28 Dec. 06 Dec. 13 Dec. 20
Sunrise:07:31 AM (PST) Moon Rise:03:58 PM (PST)11/27
Sunset:04:22 PM (PST) Moon Set:06:40 AM (PST)11/27

Copyright © 2014 The Weather Underground, Inc.